LPPT Airport Information

Runway Information
Runway 03 Length 12484 ft width 148 ft
Elevation 331 ft Threshold 296 ft Heading 22
Runway 21 Length 12484 ft Width 148 ft
Elevation 347 ft Threshold 1969 ft Heading 202
Runway 17 Length 7874 ft width 148 ft
Elevation 374 ft Threshold 0 ft Heading 168
Runway 35 Length 7874 ft Width 148 ft
Elevation 332 ft Threshold 492 ft Heading 348
Airport Frequencies
Type APP Name APP Frequency 119.1 MHZ
Type ATIS Name ATIS Frequency 124.15 MHZ
Type CLD Name CLD Frequency 118.95 MHZ
Type GND Name GND Frequency 121.75 MHZ
Type INFO Name INFO Frequency 123.75 MHZ
Type RDO Name RDO Frequency 127.9 MHZ
Type TWR Name TWR Frequency 118.1 MHZ
Airport Navaids
Type NDB Name Caparica Frequency 389 KHZ
Type NDB Name Arruda Frequency 382 KHZ
Type VOR-DME Name Lisboa Frequency 114800 KHZ
Airport Weather Information & NOTAM
ADDS - METARS form results

(1928 UTC 19 July 2018)
 
METAR text: LPPT 191900Z 33010KT 280V360 9999 BKN020 21/16 Q1018
Conditions at: LPPT (LISBON/PORTELA , PT) observed 1900 UTC 19 July 2018
Temperature: 21.0°C (70°F)
Dewpoint: 16.0°C (61°F) [RH = 73%]
Pressure (altimeter): 30.06 inches Hg (1018.0 mb)
Winds: from the NNW (330 degrees) at 12 MPH (10 knots; 5.2 m/s)
Visibility: 6 or more miles (10+ km)
Ceiling: 2000 feet AGL
Clouds: broken clouds at 2000 feet AGL
Weather: no significant weather observed at this time

METAR text: LPPT 191830Z 33013KT 9999 BKN020 21/16 Q1018
Conditions at: LPPT (LISBON/PORTELA , PT) observed 1830 UTC 19 July 2018
Temperature: 21.0°C (70°F)
Dewpoint: 16.0°C (61°F) [RH = 73%]
Pressure (altimeter): 30.06 inches Hg (1018.0 mb)
Winds: from the NNW (330 degrees) at 15 MPH (13 knots; 6.8 m/s)
Visibility: 6 or more miles (10+ km)
Ceiling: 2000 feet AGL
Clouds: broken clouds at 2000 feet AGL
Weather: no significant weather observed at this time